Location: Home
(42.5358°N, 72.7383°W)
Time: 22:06:50
(UTC-05:00)

Vanguard 2 Rocket - Pass Details

Date: 04 December 2021
Orbit: 554 x 3325 km, 32.9° (Epoch: 21 January)

Event Time Altitude Azimuth Distance (km) Brightness Sun altitude
Rises 16:49:30 0° 216° (SW) 3,018 10.8 -6.0°
Reaches altitude 10° 16:51:59 10° 200° (SSW) 2,313 9.7 -6.4°
Maximum altitude 16:56:07 22° 149° (SSE) 1,990 8.6 -7.1°
Drops below altitude 10° 17:01:56 10° 102° (ESE) 3,399 9.3 -8.1°
Enters shadow 17:04:19 - 94° (E) 4,174 9.7 -8.5°
Sets 17:06:33 0° 90° (E) 4,917 - -8.8°
